Regional Weather Roundup
Issued by NWS

Home | Current Version | Previous Version | Graphics & Text | Print | Product List | Glossary Off
Versions: 1 2 3 4 5 6 7 8 9 10 11 12 13 14 15 16 17 18 19 20 21 22 23 24 25 26 27 28 29 30 31 32 33 34 35 36 37 38 39 40 41 42 43 44 45 46 47 48 49 50

000
ASUS43 KTOP 012308
RWRKS

WEATHER ROUNDUP FOR KANSAS
NATIONAL WEATHER SERVICE GOODLAND KS
600 PM CDT FRI AUG 01 2014

NOTE:  "FAIR" INDICATES FEW OR NO CLOUDS BELOW 12,000 FEET WITH NO
SIGNIFICANT WEATHER AND/OR OBSTRUCTIONS TO VISIBILITY.

KSZ001>006-013>018-027>032-041>047-020000-
NORTHWEST KANSAS

CITY           SKY/WX    TMP DP  RH WIND       PRES   REMARKS
GOODLAND       PTSUNNY   84  50  30 S9        30.16S
HAYS           MOSUNNY   88  52  29 NE14      30.07S
HILL CITY      SUNNY     92  45  19 NE17      30.08F
RUSSELL        MOSUNNY   90  51  26 N16G24    30.05S
$$

KSZ061>065-074>080-084>089-020000-
SOUTHWEST KANSAS

CITY           SKY/WX    TMP DP  RH WIND       PRES   REMARKS
DODGE CITY     MOSUNNY   88  48  25 NE6       30.10F
ELKHART          N/A     85  51  31 SE8         N/A
GARDEN CITY    PTSUNNY   85  53  33 CALM      30.11F
GREAT BEND       N/A     90  52  27 NE15      30.04S
LIBERAL        SUNNY     88  50  27 N6        30.13F
$$

KSZ066>073-081>083-090>101-020000-
SOUTHEAST KANSAS

CITY           SKY/WX    TMP DP  RH WIND       PRES   REMARKS
CHANUTE        MOSUNNY   81  64  56 S9        30.04F
COFFEYVILLE    SUNNY     84  63  49 SW5       30.03F
HUTCHINSON     SUNNY     91  53  27 N10       30.03S
MEDICINE LODGE   N/A     90  56  31 NE10      30.02S
NEWTON         SUNNY     90  46  22 NW10      30.05F
PARSONS        MOSUNNY   82  63  52 SW6       30.05F
WICHITA INTL   MOSUNNY   91  55  29 N8        30.01F
WICHITA JABRA  PTSUNNY   88  63  43 S8G18     30.01F
WICHITA MCCONL MOSUNNY   87  62  43 S10       30.02F
WINFIELD       MOSUNNY   84  67  56 SE12      30.04F
$$

KSZ007>012-019>026-033>040-048>060-102>105-020000-
NORTHEAST KANSAS

CITY           SKY/WX    TMP DP  RH WIND       PRES   REMARKS
CONCORDIA      SUNNY     85  59  41 N14       30.04F
EMPORIA        MOSUNNY   84  64  50 SE15G23   30.01S
LAWRENCE       SUNNY     87  62  43 E9        30.03S
MANHATTAN      SUNNY     89  57  33 NE6       29.99F
MARYSVILLE     MOSUNNY   86  61  42 E9        30.02R
OLATHE IND     MOSUNNY   85  60  42 VRB7      30.05S
OLATHE EXE     PTSUNNY   83  62  49 E7        30.04F
SALINA         SUNNY     91  48  22 N15       30.02F
TOPEKA BILLARD SUNNY     86  60  41 E10       30.01S
TOPEKA FORBES  SUNNY     88  58  36 S10       30.01F
$$


USA.gov is the U.S. government's official web portal to all federal, state and local government web resources and services.